Home > Weather > Midway > Past weeks

Flag for US Minor Outlying Islands Past Weather in Midway, US Minor Outlying Islands — Yesterday and Last 2 Weeks

Now
73 °F

Mostly cloudy.


Feels Like: 74 °F
Forecast: 68 / 76 °F
Wind: 12 mph from East

Location: Midway Island Naval Air Facility

Current Time: May 28, 2016 at 9:18:45 AM

Latest Report: May 28, 2016 at 8:56 AM


Visibility: 10 mi

Pressure: 30.19 "Hg

Humidity: 76%

Dew Point: 65 °F

Location of MidwayLocation

Past Weather in Midway — Graph

°F

Midway Temperature Yesterday

Maximum temperature yesterday: 77 °F (at 9:56 AM)
Minimum temperature yesterday: 71 °F (at 1:56 AM)
Average temperature yesterday: 74 °F

High & Low Weather Summary for the Past Weeks

 TemperatureHumidityPressure
High78 °F (May 26, 12:56 PM)100% (May 17, 8:32 PM)30.28 "Hg (May 17, 8:32 PM)
Low61 °F (May 18, 5:40 AM)53% (May 20, 1:56 PM)29.81 "Hg (May 18, 3:56 AM)
Average70 °F83%30.08 "Hg
* Reported May 13 7:56 AM — May 28 7:56 AM, Midway, Weather by CustomWeather, © 2016

Note: Actual official high and low records may vary slightly from our data, if they occured in-between our weather recording intervals... More about our weather records

Advertising

Midway Weather History for the Previous 24 Hours

Scroll right to see more
 ConditionsComfort  
Time TempWeatherWind HumidityBarometerVisibility
7:56 AM
Sat, May 28
72 °FOvercast.13 mph78%30.17 "Hg10 mi
7:24 AM72 °FPartly sunny.14 mph78%30.17 "Hg10 mi
6:56 AM71 °FBroken clouds.13 mph81%30.16 "Hg10 mi
5:56 AM71 °FBroken clouds.13 mph81%30.15 "Hg10 mi
4:56 AM71 °FOvercast.14 mph84%30.13 "Hg10 mi
3:56 AM71 °FOvercast.15 mph87%30.12 "Hg10 mi
3:13 AM72 °FMostly cloudy.14 mph83%30.12 "Hg10 mi
2:56 AM71 °FOvercast.14 mph84%30.12 "Hg10 mi
1:56 AM70 °FPassing clouds.15 mph90%30.13 "Hg10 mi
12:56 AM71 °FOvercast.14 mph87%30.15 "Hg10 mi
11:56 PM
Fri, May 27
71 °FOvercast.12 mph87%30.16 "Hg10 mi
10:56 PM71 °FOvercast.13 mph87%30.17 "Hg10 mi
9:56 PM71 °FOvercast.9 mph90%30.17 "Hg10 mi
8:56 PM71 °FPassing clouds.8 mph93%30.16 "Hg10 mi
7:56 PM72 °FPassing clouds.9 mph91%30.14 "Hg10 mi
6:56 PM73 °FPassing clouds.8 mph88%30.13 "Hg10 mi
5:56 PM74 °FMild.10 mph88%30.12 "Hg10 mi
5:11 PM75 °FScattered clouds.9 mph83%30.12 "Hg10 mi
4:56 PM75 °FCloudy.9 mph85%30.12 "Hg10 mi
4:47 PM75 °FMostly cloudy.10 mph83%30.12 "Hg10 mi
4:24 PM75 °FPartly sunny.8 mph83%30.12 "Hg10 mi
3:56 PM77 °FSunny.8 mph82%30.11 "Hg10 mi
2:56 PM77 °FSunny.7 mph79%30.12 "Hg10 mi
2:32 PM77 °FPassing clouds.7 mph79%30.13 "Hg10 mi
1:56 PM76 °FMostly cloudy.8 mph82%30.14 "Hg10 mi
1:09 PM75 °FMostly cloudy.8 mph83%30.14 "Hg10 mi
12:56 PM75 °FBroken clouds.10 mph85%30.14 "Hg10 mi
12:18 PM75 °FPassing clouds.10 mph83%30.15 "Hg10 mi
11:56 AM77 °FPartly sunny.12 mph82%30.16 "Hg10 mi
11:34 AM75 °FPartly sunny.10 mph89%30.16 "Hg10 mi
10:56 AM74 °FLight rain. Mostly cloudy.9 mph91%30.15 "Hg10 mi
10:35 AM75 °FMore clouds than sun.9 mph89%30.15 "Hg10 mi
10:10 AM75 °FPartly sunny.7 mph83%30.15 "Hg10 mi
9:56 AM77 °FScattered clouds.7 mph79%30.14 "Hg10 mi
Weather by CustomWeather, © 2016

See weather overviewHow to use our weather pages